RH
6 5 5 7 10 13 16 18 17 15 15 15 14 12 9 8 8 8 7 8 7 5 4 6 7 10 12 10 8 7 7 5 5
7 7 8 10 13 15 16 16 17 18 18 16 13 9 6 5 4 4 4 5 5 5 4 5 8 11 13 12 9 7 6 6 6
6 8 9 9 10 11 12 12 12 12 13 12 10 8 4 3 4 5 7 8 8 6 5 6 10 15 15 12 9 8 7 6 6
5 8 9 8 9 11 10 11 12 9 6 4 5 6 5 5 4 10 15 16 17 19 20 16 15 20 16 11 9 9 9 7 7
5 8 10 9 10 12 12 11 12 5 3 4 5 6 5 4 4 11 11 13 13 15 18 17 19 19 16 12 10 10 12 10 10
4 6 10 10 10 12 12 13 12 5 4 6 6 6 4 3 6 11 10 10 8 7 12 16 15 15 12 10 10 8 8 9 6
5 5 6 12 12 12 13 14 12 5 6 10 11 6 3 4 6 9 10 9 8 7 6 6 9 10 10 8 7 6 6 6 8
4 5 6 11 14 14 13 14 10 4 10 11 11 4 4 4 5 5 5 5 6 6 6 6 6 6 6 6 6 7 11 12 13
5 5 6 10 16 16 14 15 10 5 12 13 11 4 4 4 4 5 7 9 12 14 14 13 13 13 13 14 14 17 16 13 10
5 6 6 6 15 17 16 15 11 6 11 14 11 3 4 4 5 5 5 6 8 12 13 12 10 13 15 16 15 15 13 13 12
6 6 7 7 12 20 19 16 12 7 10 15 14 4 3 4 5 5 4 4 4 5 6 9 12 10 13 14 14 13 13 13 13
6 7 9 9 12 22 21 16 12 7 9 16 14 10 4 4 5 4 4 5 4 5 9 10 8 12 10 11 12 12 12 12 12
8 10 11 11 20 24 22 17 13 9 8 18 17 11 11 5 4 5 5 5 6 10 12 10 10 9 10 10 11 11 12 11 12
13 15 14 20 28 28 23 18 14 8 8 17 21 18 14 12 12 10 10 12 11 12 8 8 8 10 11 10 10 10 10 11 11
20 17 23 27 28 25 23 18 14 9 7 13 21 21 18 15 14 12 12 13 12 12 10 10 11 11 11 11 12 12 11 11 11
22 23 24 22 23 24 23 16 13 9 8 11 18 23 22 19 18 15 13 12 13 14 13 13 13 13 13 14 15 16 17 18 18
26 27 25 24 26 28 23 16 12 9 9 11 14 20 22 23 22 20 19 18 18 18 19 20 22 22 23 24 24 24 24 25 26
30 30 28 26 27 26 19 14 11 9 9 11 13 20 24 23 24 22 21 21 23 26 28 30 30 29 28 29 29 29 28 29 30
32 30 25 24 26 24 17 13 11 9 10 11 13 20 26 28 25 23 23 24 28 32 34 34 33 33 32 34 37 37 35 34 34
26 22 23 26 28 24 19 14 11 10 12 16 21 26 28 27 28 25 26 30 34 36 35 35 34 35 36 35 36 38 40 38 36
Wind_Speed
25 24 22 20 19 18 18 19 21 23 25 27 29 31 31 33 35 36 38 39 39 39 41 40 39 37 35 33 32 32 31 31 30
24 23 22 21 21 21 21 22 24 26 28 30 32 33 34 35 35 35 35 37 40 41 42 41 41 37 35 33 31 30 29 29 28
23 22 22 21 22 23 24 25 27 29 32 35 37 36 34 31 31 30 28 26 27 29 32 34 35 33 30 28 25 25 24 25 26
23 22 22 22 23 23 24 28 30 35 37 37 37 35 30 32 31 20 20 19 21 22 21 21 23 25 25 22 22 21 22 22 24
24 24 23 25 24 23 25 30 33 34 29 31 29 26 29 32 22 16 18 19 20 20 21 20 18 18 22 22 22 20 22 23 24
26 25 25 26 25 23 27 31 34 31 34 33 28 24 26 20 14 12 17 19 20 18 17 17 17 17 18 20 21 22 22 23 24
28 28 27 27 25 25 28 32 34 33 33 30 28 22 15 13 12 14 17 19 20 19 17 16 15 15 15 17 18 19 20 21 20
29 30 28 28 26 25 28 32 34 32 32 26 28 20 10 12 14 17 19 19 19 18 17 16 16 15 15 15 16 16 15 15 14
29 31 31 28 27 27 28 32 34 32 31 27 25 19 11 11 12 12 12 12 12 11 12 12 12 11 9 8 7 7 8 11 12
29 31 32 29 28 28 29 31 33 31 30 28 24 18 16 12 10 9 12 13 13 13 13 12 10 6 4 4 5 6 8 9 11
31 33 33 30 28 28 30 32 32 30 29 29 26 18 16 14 12 12 13 15 16 17 16 13 11 8 7 7 8 9 10 13 14
34 36 33 30 29 29 31 33 33 31 30 28 26 22 16 16 15 14 15 17 18 19 17 15 12 11 11 12 12 12 14 16 18
36 36 32 30 28 29 31 32 33 32 30 28 25 23 21 18 17 18 19 19 18 18 15 14 14 13 14 14 16 16 18 19 20
37 34 31 29 28 29 31 32 32 32 30 28 26 24 23 20 19 19 19 17 16 14 14 14 14 15 16 17 18 20 21 21 23
35 31 28 28 29 31 32 32 32 33 30 28 28 26 24 24 23 20 18 16 15 16 19 19 17 16 16 17 18 20 21 23 25
34 30 29 31 32 33 32 32 32 33 31 28 28 28 28 25 25 24 22 20 20 20 22 23 23 22 21 21 21 22 22 23 24
33 31 32 34 35 35 34 34 33 34 32 29 29 29 29 29 27 26 25 25 24 24 24 25 26 26 24 24 25 25 25 25 26
33 34 35 37 37 36 35 35 35 35 32 30 31 31 31 31 32 30 29 28 27 26 26 26 26 28 28 28 29 29 30 30 30
35 36 37 38 39 38 38 37 37 35 33 33 33 34 35 35 34 34 33 32 31 29 29 29 30 31 32 33 33 34 34 35 35
36 38 39 40 40 40 40 39 39 36 36 37 37 37 37 37 38 37 36 34 35 35 34 34 35 36 37 38 39 39 38 39 39
Wind_Direction
6 6 3 2 359 354 349 342 335 331 328 323 317 310 304 302 296 292 286 282 279 277 276 273 270 267 265 266 266 266 267 269 271
3 1 0 0 354 349 344 340 333 329 322 316 310 307 305 304 303 301 295 285 279 276 275 273 269 267 265 265 267 267 268 268 271
353 351 349 348 344 339 335 334 332 327 319 313 309 307 307 312 313 314 314 308 302 292 284 275 271 268 268 268 266 268 268 269 270
349 347 342 338 335 333 338 337 332 324 318 314 311 307 308 314 313 320 330 328 325 326 324 306 278 268 262 261 260 261 264 266 269
347 343 338 338 336 334 336 337 331 330 333 329 324 315 312 316 313 324 323 324 318 319 319 317 303 282 265 256 255 259 264 264 266
347 343 338 336 336 336 337 336 333 329 327 327 324 318 319 319 323 318 319 318 321 313 312 313 309 295 277 263 261 261 262 265 266
341 341 338 333 333 333 335 335 333 329 330 330 330 322 326 328 322 318 313 313 314 315 312 304 296 289 282 277 273 271 270 271 272
333 336 338 333 330 329 332 335 334 332 333 329 332 322 317 322 325 319 317 314 310 309 315 312 304 293 285 279 276 275 273 270 271
326 330 333 329 328 325 328 332 333 332 335 331 329 318 299 311 321 329 333 336 340 338 332 328 322 318 306 285 273 265 271 276 280
325 327 327 325 320 318 322 326 330 330 333 329 325 320 291 296 308 319 322 327 330 325 320 323 325 326 326 310 301 300 302 303 299
323 325 324 320 314 312 316 320 325 327 329 327 324 316 293 288 293 308 312 316 320 321 319 314 310 308 284 288 289 295 297 299 306
324 324 322 317 314 310 312 319 323 325 325 323 320 315 301 287 289 295 301 305 312 315 316 314 301 298 291 281 290 294 294 300 301
322 321 318 316 316 311 313 317 320 321 320 319 316 319 311 298 288 290 294 299 305 307 307 315 311 300 293 284 284 290 292 293 293
320 318 316 315 312 312 312 313 316 318 315 315 313 311 313 313 307 300 299 302 305 307 308 308 308 305 298 291 286 286 288 288 291
318 314 313 312 310 311 310 311 313 316 310 308 310 305 305 306 308 308 305 303 306 311 311 307 305 304 300 294 287 285 287 290 292
313 309 309 309 308 308 308 310 311 311 305 302 305 304 300 303 304 302 298 295 298 300 300 300 298 296 296 296 296 296 295 295 294
306 304 305 306 306 306 306 307 307 306 301 299 299 301 300 295 296 296 291 290 292 294 294 295 296 296 297 298 298 298 297 297 298
299 300 302 303 305 305 304 304 306 302 299 297 296 296 296 294 294 294 290 288 290 291 292 292 293 294 296 299 301 301 300 301 303
294 297 299 301 302 302 301 302 302 298 295 295 294 293 294 292 290 293 292 290 290 290 290 290 291 291 292 295 298 300 299 299 300
292 294 297 300 300 300 300 300 299 295 292 292 292 291 290 290 290 289 289 287 289 290 289 288 287 288 289 291 293 295 297 296 297